FENGYUN 1C DEB, 31416

Orbit data source: Space-Track

FENGYUN 1C DEB, 31416 is space debris in SSO originally from a launch on Mon, 10 May 1999 UTC launched from the Taiyaun Space Center, China (TSC). Fengyun 1C debris stems from the Chinese weather satellite Fengyun-1C, which was intentionally destroyed by a Chinese anti-satellite missile in 2007. This event dramatically increased the amount of space debris, with thousands of trackable fragments posing hazards to satellites and human spaceflight. The Fengyun 1C debris cloud has become a focal point in discussions about space sustainability and the need for international regulations to prevent the creation of new debris.

Loading next visibility...
Identifier
31416, 1999-025BTC
Orbit
SSO
Country
Flag of CNCN / PRC
Related business
Manufacturer
Unknown
Mission
Spacecraft
Bus & Motor
Unknown
Mass
Unknown
Launch date (UTC)
1999-05-10 (27 years ago)
Launch vehicle
Unknown
Launch site
Taiyaun Space Center, China (TSC)
Object type
Payload
Rocket body
Debris
Shape & HBR
Unknown shape, 0.1 m
Radar Cross Section
Small (<0.1 m²)

Expand to show TLE details & history
Last TLE update: 1 day ago

TLE from 1 day ago
0 FENGYUN 1C DEB
1 31416U 99025BTC 26207.45553066  .00000664  00000-0  20142-3 0  9999
2 31416  99.0237 275.4183 0131666 304.8672  54.0194 14.41100984687703
Epoch: 2026-07-26T10:55Z
TLE epoch observation values (Epoch: 2026-07-26T10:55:57.849Z)
Latitude
0.00008°
Longitude
167.27404°
Altitude
703.428 km
Speed
7.533 km/s
True Right ascension
18h 21m 40s
True Declination
0° 00' 00"
Sunlit
Object was in full shadow at epoch
Visualization orbit readout
Latitude
Unknown
Longitude
Unknown
Altitude
Unknown
Speed
Unknown
Apparent Right ascension
Unknown
Apparent Declination
Unknown
Sunlit
N/A
Visualization observer readout
Local Sidereal Time
03:41:53
Azimuth
Unknown
Elevation
Unknown
Doppler factor
Unknown
Orbital elements
Apogee altitude
845.888 km
Perigee altitude
658.129 km
Semi-major axis
7,130.145 km
Eccentricity
0.01317
Inclination
99.0237°
RAAN
275.4183°
Arg. of periapsis
304.8672°
True anomaly
55.25215°
Mean anomaly
54.0194°
Eccentric anomaly
54.63459°
Mean motion
3.60492 °/min
Orbital period
99.86 mins
BSTAR
0.00020142
Loading maneuver chart data...
Computing Atmospheric mass density...
Loading historical data...
Loading historical data...
Loading historical data...
Loading historical data...
Loading historical data...
Loading historical data...
Loading historical data...

Documentation

Showing up to 5 results
|